Theta_e
321 325 326 326 325 324 323 323 324 326 327 327 327 328 328 329 328 329 329 330 330 331 331 331 331 330 330 330 329 329 329 329 329 329 329 330 331 331 329 328 329 329 329 329 330 331 330 330 330 330 330 330 331 330 330 330 331 331 331 330 330 330 330 331 331 331 330 330 329 329 329 328 328 328 328 328 328 330 331 330 330 331 330 329 328
325 327 327 326 325 323 323 322 322 323 323 322 322 325 328 328 328 329 329 330 330 330 329 329 329 329 329 329 329 329 329 329 329 328 329 329 330 330 328 328 328 329 329 328 329 331 330 329 329 329 330 330 329 329 329 330 330 329 330 329 329 330 329 331 331 330 329 328 328 327 327 327 327 327 327 327 328 328 329 329 328 328 327 326 325
327 327 327 327 325 322 321 322 321 321 320 319 319 321 325 328 328 329 329 330 330 330 328 327 328 328 328 328 328 329 329 329 328 328 329 329 329 329 328 329 329 329 329 329 329 330 330 329 329 329 329 329 329 330 330 330 331 329 329 329 330 330 330 330 330 328 328 327 326 325 326 326 326 326 325 326 326 326 326 325 325 326 325 324 324
325 326 325 325 323 318 319 320 319 320 320 321 321 321 323 326 327 328 329 329 329 330 328 326 326 328 328 328 328 329 329 329 329 329 329 329 329 329 329 329 330 330 329 328 328 329 330 329 329 329 329 329 329 329 329 330 331 329 330 329 329 330 330 329 328 327 326 325 324 323 323 324 324 324 324 325 326 325 325 325 326 325 324 324 323
323 324 323 322 319 316 317 317 317 319 320 323 324 322 321 322 323 324 326 326 326 328 329 327 326 327 328 327 328 329 328 328 328 328 328 329 329 329 329 330 329 329 328 328 328 329 329 329 329 329 328 328 328 328 328 328 329 329 329 328 328 329 328 327 327 326 325 324 323 323 323 323 323 324 324 325 325 326 325 325 325 324 323 322 322
318 319 319 318 316 314 315 315 315 316 318 321 321 321 320 320 320 321 322 323 323 326 328 327 327 327 327 327 328 328 326 326 325 325 326 326 327 328 328 329 329 328 328 328 328 329 329 328 329 328 327 327 327 327 327 326 327 328 328 327 327 328 326 326 325 324 324 323 323 323 323 322 322 322 323 323 324 324 324 324 323 323 322 322 320
315 315 315 315 314 314 315 315 315 315 316 317 318 318 318 318 319 320 321 323 325 326 327 327 326 326 327 327 327 326 324 324 324 324 325 325 326 327 328 328 328 329 328 329 329 328 328 328 327 327 327 327 326 326 327 326 326 327 327 327 327 326 325 325 324 323 323 322 323 322 320 319 318 319 320 321 321 322 322 322 321 321 321 319 317
315 315 315 315 314 314 315 315 315 315 315 316 317 317 316 316 318 320 322 323 325 326 326 327 327 326 327 327 326 325 325 325 324 325 327 327 328 328 328 327 328 328 328 329 328 328 328 327 327 327 327 326 326 326 326 326 326 326 326 326 325 325 324 324 323 322 322 322 321 319 316 314 312 312 313 313 315 316 317 317 316 316 314 313 310
316 315 316 316 314 314 315 315 315 315 314 315 316 317 316 316 318 321 324 324 324 325 326 326 326 327 327 327 327 326 326 325 325 327 328 329 328 327 328 327 327 328 328 328 327 327 327 327 326 326 326 326 326 326 325 325 325 325 325 324 323 323 323 322 322 321 322 321 317 313 311 309 307 307 307 307 307 308 308 309 308 307 306 306 305
316 316 316 316 315 316 316 316 316 316 315 315 315 317 317 316 319 324 325 325 325 325 325 327 327 327 328 328 327 326 326 326 327 328 328 329 328 327 328 327 326 327 327 326 326 325 325 325 325 325 325 325 325 325 324 324 324 324 324 323 322 321 321 321 321 322 320 317 312 308 307 306 305 305 305 305 304 303 302 303 303 302 301 301 302
315 316 317 316 314 316 318 318 318 318 317 315 314 315 317 317 318 322 325 326 325 325 325 326 327 328 329 328 327 327 326 327 327 327 328 328 328 327 327 327 327 327 326 325 324 324 323 324 324 324 324 324 324 323 323 323 322 322 322 322 321 321 321 321 321 320 316 311 307 305 305 305 304 304 303 302 301 301 301 300 300 299 299 299 299
315 314 315 316 314 314 317 318 318 319 318 317 315 314 315 317 318 321 325 326 326 325 324 326 328 328 328 328 327 327 327 328 328 327 327 328 327 327 327 326 326 326 324 323 322 322 322 324 324 323 323 323 322 322 322 321 320 320 320 319 320 321 320 319 317 313 309 306 304 304 303 303 304 304 302 301 300 300 299 298 298 298 298 298 298
316 314 314 314 314 314 315 317 318 318 319 318 318 316 315 316 319 322 325 326 326 326 325 326 328 328 327 327 327 327 327 327 327 327 327 327 326 326 326 326 325 324 322 321 321 320 321 322 323 323 322 321 320 320 319 318 319 318 315 311 312 314 313 311 308 305 303 303 301 301 300 301 304 303 302 302 300 298 298 298 297 297 297 297 298
318 317 316 315 314 313 314 316 317 319 319 319 319 318 317 315 316 319 324 327 326 326 326 326 327 327 327 327 327 327 326 327 327 327 326 326 325 325 325 325 323 322 320 320 320 319 318 319 320 320 319 318 317 317 318 318 317 314 308 304 304 304 304 303 302 301 300 299 298 298 298 299 301 303 304 303 300 297 298 297 297 297 297 297 297
319 319 318 317 315 314 313 313 316 318 319 320 320 320 318 316 315 316 319 325 327 326 326 326 326 326 326 327 327 326 326 326 326 325 325 325 324 323 324 323 322 321 320 320 320 319 318 318 317 317 316 313 313 314 315 313 309 305 302 302 301 300 300 299 298 299 298 297 297 297 298 298 298 301 304 303 300 297 297 296 296 297 297 297 298
320 320 319 319 318 317 315 313 313 316 318 319 320 321 320 319 317 314 315 320 325 326 326 326 326 326 326 326 326 326 326 325 324 324 324 323 323 323 322 323 322 321 320 320 320 319 318 317 316 315 313 308 306 307 306 304 302 301 300 300 299 298 298 297 297 298 297 297 297 296 298 299 297 298 301 301 300 298 297 296 296 297 296 298 298
321 321 321 321 321 321 320 316 313 314 316 317 319 320 321 320 319 316 314 315 320 323 326 326 326 326 326 326 326 326 326 325 324 324 325 324 323 323 322 322 322 321 320 320 319 318 317 315 313 312 312 307 303 302 301 301 300 300 299 298 298 297 297 297 297 297 296 296 296 296 300 301 298 300 301 299 299 297 297 297 296 297 298 300 301
325 324 323 323 323 323 323 321 317 314 314 315 318 319 320 321 320 318 317 315 316 318 322 325 326 326 326 326 326 326 326 325 324 324 325 324 324 324 323 322 322 321 321 320 319 318 315 312 310 311 311 308 304 301 301 300 299 298 298 297 296 296 295 296 296 296 296 295 296 298 301 301 298 300 300 298 298 297 298 299 299 300 302 303 305
326 327 326 324 325 325 324 324 323 318 315 314 315 317 319 320 321 320 319 317 315 315 318 323 325 326 326 326 326 326 326 326 325 325 325 324 323 324 323 323 322 321 321 320 318 316 313 310 310 310 310 308 306 304 303 301 299 298 297 296 295 295 295 295 296 296 295 295 296 297 300 301 298 298 299 299 301 301 301 303 303 303 304 305 305
325 326 327 327 326 327 327 326 325 323 319 315 314 315 317 320 320 320 320 319 317 315 316 321 324 325 325 325 325 326 326 327 326 325 324 323 322 323 323 323 322 321 321 319 318 315 312 310 309 309 309 308 308 308 306 302 299 298 297 296 295 295 295 295 298 299 297 295 295 296 300 301 299 298 299 301 303 304 304 304 304 305 305 305 304
327 326 326 327 327 327 328 327 327 326 323 319 315 314 315 317 320 320 320 319 318 316 316 320 323 324 325 325 325 325 326 326 326 325 324 323 322 322 322 322 321 321 320 319 318 315 312 310 309 309 309 309 309 310 307 302 298 296 296 295 295 295 294 296 299 300 299 296 294 296 298 300 299 298 300 302 304 305 305 304 304 304 305 305 304
327 327 327 327 327 327 328 328 327 326 326 322 317 314 314 315 318 319 319 318 318 317 317 319 321 323 324 324 324 325 325 326 326 325 324 323 322 322 322 321 321 320 320 319 317 314 311 310 309 309 309 309 310 310 306 299 296 295 295 294 294 294 294 295 297 298 297 295 294 295 295 297 297 297 301 304 304 304 304 303 302 303 305 305 305
328 328 328 328 327 328 328 328 327 326 326 324 319 315 314 314 315 317 318 317 317 317 317 318 319 321 323 323 323 324 324 324 325 325 324 323 323 322 321 321 321 320 319 318 317 314 311 310 309 309 310 309 310 311 306 299 295 294 294 294 294 294 294 294 294 294 294 294 294 295 294 295 295 296 301 302 300 301 303 303 302 303 304 304 304
328 328 327 327 327 327 327 328 328 326 326 325 322 317 314 314 313 314 316 317 316 317 317 318 318 319 320 322 323 323 323 324 324 324 324 324 323 322 321 321 320 319 318 317 317 314 310 309 309 309 309 309 310 310 307 299 294 294 293 293 294 294 294 294 294 294 294 294 294 295 295 295 295 296 298 298 298 301 303 303 303 304 304 303 303
327 327 326 325 324 325 326 327 327 326 325 325 323 319 315 314 312 312 314 315 315 315 316 318 318 318 319 321 322 322 322 323 323 323 323 323 323 322 322 321 320 319 318 317 316 313 310 309 309 309 309 309 309 310 308 300 294 294 293 293 293 293 294 294 294 294 294 294 294 295 295 295 295 296 295 297 301 303 302 302 303 304 304 303 303
327 327 327 326 325 324 324 326 327 325 324 324 324 320 317 315 313 312 314 313 312 314 316 317 317 317 318 320 321 320 320 321 322 322 322 322 322 322 322 321 319 318 318 317 316 313 310 309 309 309 308 309 309 310 309 301 294 294 294 293 294 293 293 294 294 294 294 294 294 294 295 295 295 295 295 297 301 302 301 301 302 303 304 304 304
327 327 327 327 326 324 323 325 326 325 324 324 323 321 318 316 314 313 313 313 313 314 316 316 317 317 317 319 320 320 319 320 320 321 321 320 321 322 323 321 319 318 317 317 316 313 311 309 309 309 308 309 309 310 309 301 294 294 295 294 294 294 293 294 294 294 294 294 294 294 295 295 295 295 294 296 299 301 301 301 301 302 303 304 304
326 326 327 327 325 323 323 324 325 325 325 325 323 321 318 316 315 314 314 314 314 314 315 316 316 316 317 318 319 319 319 319 319 319 320 319 320 322 322 322 320 318 317 316 315 313 311 310 309 309 308 308 309 310 309 301 295 295 296 295 295 295 294 293 294 294 294 294 294 294 294 294 294 294 294 294 296 297 299 301 301 302 304 305 306
326 325 326 326 326 324 323 324 325 325 324 324 323 320 318 317 316 314 315 315 313 313 315 315 316 316 316 317 318 318 318 318 318 318 318 319 319 320 321 322 321 319 318 316 315 314 312 311 310 309 308 308 309 309 307 301 295 296 297 295 295 295 294 293 293 294 293 294 294 293 293 293 293 293 294 294 295 295 298 300 301 303 305 306 307
325 325 325 326 326 325 324 324 326 325 324 323 322 320 319 317 316 316 316 316 314 311 313 315 315 316 316 316 317 318 317 317 318 318 318 318 318 318 320 321 321 320 319 317 316 314 313 312 310 309 309 308 308 308 305 300 297 297 297 296 295 295 294 293 293 293 293 293 293 293 292 292 292 292 294 296 296 296 297 300 302 304 306 307 309
324 325 325 326 326 326 325 325 326 325 324 323 322 320 319 317 317 317 317 318 316 311 311 315 315 315 316 316 316 318 317 317 317 317 317 317 317 317 319 321 321 320 319 318 316 315 314 313 311 309 309 308 308 307 303 300 299 298 298 298 297 297 296 295 294 294 294 294 293 293 292 292 292 292 293 297 298 297 298 301 302 304 306 308 308
319 321 323 324 325 325 325 325 325 324 323 323 322 320 320 318 318 318 318 318 317 312 310 314 316 316 316 316 316 317 317 317 317 317 317 317 317 317 319 321 321 320 319 318 316 315 314 313 311 308 309 309 307 306 303 302 302 300 300 301 301 300 298 297 296 295 294 294 293 293 292 292 292 292 293 298 300 298 299 302 303 304 306 308 308
313 316 318 320 322 324 324 323 323 324 322 322 321 320 320 319 318 319 318 318 318 314 309 312 315 316 316 316 315 315 316 316 316 316 316 317 317 318 319 320 321 320 319 317 316 315 314 313 311 309 309 309 307 306 304 304 305 303 301 302 303 303 300 298 298 297 294 294 294 293 293 292 292 292 293 297 301 300 300 303 304 305 306 308 309
311 312 313 314 316 319 321 321 322 323 322 321 320 320 321 320 319 319 318 318 319 315 308 309 314 315 315 315 314 314 315 316 317 316 316 316 317 318 319 320 320 320 319 318 317 316 315 315 312 311 311 309 306 305 305 304 306 306 304 303 303 303 302 299 299 298 296 295 295 293 293 292 292 292 292 295 300 302 303 304 304 305 306 308 309
312 312 311 311 312 314 317 319 320 320 320 321 321 321 321 320 319 319 319 318 318 316 308 305 309 312 313 314 314 314 315 316 317 316 315 315 316 317 318 319 319 320 319 319 318 317 317 316 314 313 312 309 306 306 306 305 306 306 306 305 303 303 303 301 300 299 297 296 296 295 294 294 292 292 292 292 297 302 304 304 304 305 307 308 308
312 312 311 310 311 311 313 316 318 318 318 319 321 321 321 320 320 320 319 318 318 318 313 305 304 307 310 312 313 313 313 314 315 314 314 315 315 316 318 318 318 319 319 320 319 319 319 318 315 314 312 308 306 307 306 305 306 306 306 306 305 303 303 302 301 300 297 297 297 296 296 296 293 292 292 292 296 301 303 303 304 304 306 307 308
311 311 310 310 310 311 311 312 315 317 317 318 319 321 320 319 319 319 319 318 318 319 317 310 302 302 306 309 311 312 311 311 311 312 313 313 313 315 317 318 318 318 319 320 319 319 319 317 314 313 311 308 307 307 307 306 306 306 306 306 306 305 303 303 303 301 298 297 299 298 297 297 296 293 292 292 297 302 303 303 304 306 307 308 308
310 311 311 309 310 311 311 312 314 316 317 319 320 320 320 319 319 318 319 318 318 318 318 313 304 300 302 306 309 312 312 311 309 308 308 309 312 314 316 316 318 317 317 318 318 319 317 314 311 310 309 308 307 307 307 306 306 306 306 306 306 305 304 303 303 302 299 298 299 299 298 298 297 295 292 291 295 301 304 303 304 307 308 308 309
310 311 310 309 309 311 312 313 314 316 317 319 319 319 320 319 316 316 318 319 318 318 319 316 307 300 301 305 308 310 311 310 308 306 306 308 312 315 315 316 317 316 315 316 317 318 316 313 310 310 309 309 308 308 307 306 306 306 306 306 306 306 305 304 303 303 301 299 299 299 299 299 298 296 294 291 293 299 303 304 305 308 310 309 309
310 311 309 309 309 310 312 313 313 315 316 319 319 319 320 319 316 317 319 319 318 318 318 317 310 302 300 304 307 309 309 309 307 305 305 308 312 314 314 315 316 316 314 314 315 316 315 313 311 310 310 309 309 308 308 307 306 306 306 306 306 306 306 305 304 304 303 300 298 299 299 299 300 298 295 292 292 298 304 304 306 309 309 309 310
311 310 309 309 309 309 311 312 312 313 315 318 320 319 320 318 316 317 318 318 318 317 317 317 312 304 300 302 305 307 307 306 306 304 303 305 308 312 313 314 315 316 315 314 314 314 314 313 312 311 310 310 309 309 309 308 307 306 306 306 306 306 306 305 304 304 304 300 298 298 298 300 301 299 298 294 292 298 303 303 306 309 308 308 309
311 311 308 309 309 308 310 312 312 312 313 316 319 319 320 318 314 315 318 318 318 317 316 316 313 305 301 301 304 306 305 304 304 303 303 303 304 307 311 313 313 314 315 315 314 314 313 313 313 312 311 310 310 310 309 308 308 307 306 306 306 306 306 306 304 304 304 301 299 298 298 300 301 300 299 296 292 295 300 302 306 309 307 307 309
310 311 309 309 309 308 309 310 312 312 312 315 318 319 319 317 313 315 318 317 317 318 316 315 313 306 301 301 303 304 304 303 302 302 302 301 301 304 310 314 314 314 315 315 314 314 314 314 314 313 312 311 310 310 310 309 308 308 307 307 307 306 306 306 305 304 304 301 300 299 298 300 301 300 300 297 293 294 296 299 306 308 307 309 311
308 310 309 309 309 308 309 308 309 312 313 314 317 318 318 317 315 317 319 317 316 317 315 314 313 307 302 301 303 304 304 302 301 301 300 300 300 304 310 314 315 315 315 315 315 315 314 314 313 313 313 312 311 310 310 310 309 309 308 307 307 307 306 305 305 305 304 301 300 300 299 299 300 300 300 298 295 293 293 298 306 309 309 310 311
307 308 308 308 308 309 309 307 307 311 312 313 315 316 316 316 316 316 318 317 315 315 314 313 312 308 303 302 303 303 303 302 300 300 299 299 299 302 309 313 314 314 314 314 315 316 316 315 314 313 313 312 310 310 310 310 310 309 308 308 307 307 306 305 305 305 303 300 300 301 300 300 300 300 300 299 296 293 292 297 305 309 309 309 310
306 307 307 308 309 309 309 306 306 308 310 311 313 315 314 313 313 313 315 316 314 313 314 313 312 309 305 302 302 303 303 302 300 298 298 298 297 299 306 313 314 313 314 314 314 315 315 316 315 314 313 312 310 310 310 310 310 309 309 308 307 306 305 305 305 303 301 299 300 301 300 300 300 299 300 299 297 294 292 295 303 308 309 308 308
306 306 306 307 309 310 308 306 305 306 307 308 310 313 313 312 311 311 312 314 313 312 314 313 311 310 307 303 302 303 303 302 300 298 297 297 297 297 303 311 314 313 313 313 314 313 313 313 314 313 312 312 311 311 311 310 310 309 308 308 307 305 304 305 305 302 300 299 300 301 300 300 300 299 299 299 298 296 293 294 300 306 309 308 308
305 305 306 306 307 308 308 307 306 306 306 307 307 309 311 311 311 310 310 312 312 312 312 312 310 310 308 305 303 303 304 303 301 299 297 297 297 296 299 305 311 313 312 312 312 313 312 312 312 312 311 311 310 311 311 310 310 309 308 308 308 305 304 304 304 302 301 300 301 301 301 301 300 300 300 300 299 297 294 294 297 303 308 309 308
303 305 305 305 305 306 307 307 307 306 306 306 306 307 309 310 311 310 309 311 313 312 311 310 309 309 309 307 304 303 303 304 303 300 297 296 297 296 297 300 304 309 312 312 312 312 312 312 312 311 311 310 309 310 311 310 310 309 308 308 307 305 304 303 303 303 302 301 300 301 301 301 301 300 299 300 300 298 295 294 294 298 304 308 309
302 303 304 305 305 305 306 306 307 307 306 307 306 307 308 309 310 311 310 310 311 312 311 310 310 309 309 308 305 303 303 304 304 302 299 296 296 296 296 297 298 301 306 308 310 311 311 310 310 309 308 308 309 309 310 310 309 309 308 308 307 305 304 303 303 304 304 302 301 301 302 301 301 300 300 300 300 299 297 294 294 296 300 304 308
300 302 303 304 304 304 305 305 306 306 306 306 307 307 307 308 310 311 311 310 310 311 311 311 310 310 309 308 306 304 304 304 305 303 299 297 296 296 296 296 296 297 298 301 303 304 305 304 304 304 307 308 309 309 310 309 308 308 308 307 307 304 303 303 303 304 305 304 302 302 302 302 302 301 300 300 300 299 297 295 294 295 296 299 304
Wind_Speed
7 7 8 10 11 11 11 10 9 8 8 8 8 8 7 7 6 5 5 5 5 5 6 5 6 7 8 8 9 9 9 10 10 8 6 5 5 5 5 6 6 6 7 8 8 8 8 10 10 8 10 11 11 11 12 13 12 12 12 11 11 10 9 8 7 8 10 11 12 13 13 13 14 14 14 13 14 14 11 10 10 10 13 16 18
6 7 8 10 11 12 12 11 9 9 9 8 7 7 7 6 5 5 5 5 5 4 5 6 6 8 8 8 8 8 8 9 9 7 6 6 5 4 4 6 6 6 7 7 8 8 7 8 10 10 9 10 10 9 11 12 10 10 9 8 7 6 5 4 5 7 9 10 11 12 12 12 12 12 11 11 11 11 10 10 11 12 14 17 19
7 7 9 10 12 13 12 11 9 9 9 8 7 6 6 6 5 5 4 4 4 4 5 7 7 7 7 7 8 8 8 7 7 7 7 6 5 4 4 5 5 5 6 7 7 8 7 7 8 9 9 8 8 8 8 8 8 9 7 6 6 5 3 2 5 8 10 12 13 13 12 11 11 11 11 11 11 11 13 14 14 14 16 18 20
7 8 10 11 13 14 12 10 9 9 9 9 8 6 5 5 6 5 4 4 4 4 5 7 7 6 7 7 7 8 7 6 6 7 7 5 4 4 4 4 4 4 5 6 7 7 8 8 7 8 8 6 6 6 5 5 6 7 7 5 4 5 3 5 8 10 12 14 15 14 13 12 12 12 12 12 12 13 15 14 14 16 19 21 22
9 9 10 12 13 13 11 10 10 9 9 8 8 7 6 5 6 6 5 5 6 5 5 7 7 5 6 6 6 7 7 6 6 7 6 4 3 4 4 3 3 3 4 5 6 7 8 9 9 9 8 7 7 7 4 3 6 7 6 5 3 2 7 10 11 12 13 14 16 16 16 15 14 13 13 13 15 16 17 17 18 20 21 22 22
10 10 11 12 12 11 10 9 9 9 9 8 9 9 8 7 6 6 6 6 6 5 6 6 6 4 5 5 5 5 6 6 8 8 6 4 3 3 4 4 4 4 5 6 6 8 9 9 10 10 10 9 8 8 6 4 6 6 5 6 4 6 10 10 12 13 13 15 18 19 18 17 16 14 14 14 16 17 18 19 20 21 22 23 23
10 11 11 11 11 10 10 10 10 9 9 9 9 9 8 8 6 5 5 5 5 4 5 6 5 4 5 3 3 3 5 7 10 9 7 5 4 3 3 3 3 5 5 5 5 7 8 9 10 10 10 10 10 9 9 7 6 5 3 4 5 7 10 12 13 14 15 18 20 20 19 19 18 16 15 15 16 18 19 21 22 22 23 24 24
11 11 11 10 9 9 9 10 10 9 9 9 9 9 8 8 7 5 4 4 4 3 4 5 4 4 4 1 2 4 6 9 10 9 7 6 6 5 4 3 2 4 5 4 4 6 8 9 9 9 9 10 10 10 10 9 8 5 4 6 8 9 11 12 14 17 18 19 21 20 19 18 17 17 16 16 17 18 20 21 22 22 22 23 24
11 12 12 11 9 8 9 9 9 9 9 9 9 9 9 7 6 4 3 3 4 3 3 3 4 4 3 2 1 5 7 9 9 6 5 3 2 4 4 2 2 3 3 4 5 7 8 8 9 9 9 8 7 8 8 8 9 8 8 11 12 13 14 15 18 21 21 21 21 20 20 18 17 17 17 16 17 17 19 20 21 22 22 22 21
13 14 15 15 10 8 9 9 10 11 10 9 8 8 8 7 5 4 3 3 4 4 3 3 4 4 4 3 3 4 6 6 5 3 2 0 1 1 1 1 1 2 3 4 6 8 9 8 8 8 8 7 7 7 7 7 7 8 10 12 14 17 21 22 22 23 23 22 21 20 20 19 18 19 18 17 16 16 17 18 19 20 21 21 21
14 15 17 17 13 9 9 10 10 12 12 11 9 8 8 8 6 4 3 4 4 4 3 3 4 5 5 4 4 4 4 3 3 3 2 2 2 1 1 1 2 3 4 6 8 10 10 9 9 8 8 8 9 10 11 10 9 10 12 14 16 20 23 24 25 24 22 21 20 19 19 19 19 20 20 20 18 16 15 15 16 16 17 18 19
16 16 16 17 15 11 10 11 12 12 13 14 12 11 9 8 8 5 4 4 4 4 3 3 4 5 6 6 5 3 2 2 3 4 2 2 1 1 0 2 3 5 7 9 12 12 10 9 8 8 8 9 11 12 13 14 13 12 13 15 17 19 21 22 22 21 20 20 19 18 17 17 18 19 20 20 19 18 16 16 16 17 17 16 16
17 17 16 16 16 14 12 12 12 13 14 15 15 14 12 9 9 7 5 4 4 4 3 3 4 6 6 5 4 2 1 1 2 2 2 3 2 0 1 3 4 7 10 12 13 12 9 8 8 8 10 12 13 13 15 16 16 14 13 12 13 16 17 18 18 18 19 20 20 18 17 16 16 17 18 18 18 19 18 18 18 18 18 18 17
17 17 17 16 16 16 14 13 13 13 14 14 15 16 14 11 9 8 6 5 4 3 3 4 5 6 6 4 2 1 1 1 1 2 3 3 2 1 2 4 6 8 11 12 12 12 10 8 9 10 11 13 13 14 14 15 16 15 14 14 14 14 15 15 16 18 19 20 19 18 17 16 15 17 17 17 19 20 19 18 18 19 19 19 18
17 17 17 17 17 17 16 14 14 13 13 13 14 15 16 14 11 9 8 6 6 5 4 5 5 6 5 4 3 1 1 1 2 3 2 2 1 2 3 4 6 8 10 10 9 10 10 11 11 11 12 12 11 12 13 14 15 15 15 15 15 15 15 15 15 17 17 18 18 17 17 16 15 16 17 18 19 20 19 18 19 19 20 20 19
16 16 16 17 17 18 18 16 14 13 14 14 14 15 15 15 14 10 8 7 6 6 6 6 6 6 5 5 4 3 3 3 2 2 1 1 1 0 2 3 4 7 8 7 6 7 9 11 12 11 11 11 10 11 11 12 13 14 15 16 16 17 17 17 16 16 16 16 16 16 16 17 17 17 17 18 19 19 20 19 20 20 20 20 19
16 16 17 17 16 17 18 18 16 14 14 14 14 14 14 14 15 12 8 7 7 7 7 8 8 7 6 6 6 4 4 5 3 4 4 1 1 2 1 2 4 5 5 3 4 6 8 11 12 11 11 11 11 11 11 12 13 15 16 17 18 19 18 17 16 15 15 15 15 16 16 17 17 17 17 18 19 20 20 20 20 20 20 18 18
17 18 18 17 17 17 17 17 18 16 14 14 14 14 13 13 14 13 10 9 8 8 8 8 9 9 8 8 9 8 7 6 5 7 7 4 3 5 1 0 3 3 1 1 4 6 7 10 11 12 12 12 12 12 13 14 15 16 17 18 18 18 18 18 17 16 15 15 15 16 16 16 17 17 17 18 19 20 20 20 20 19 19 18 18
17 18 19 19 18 17 17 17 18 18 16 15 14 14 13 12 12 12 12 11 10 9 9 8 8 8 9 9 10 10 9 9 8 8 9 7 6 7 5 3 4 3 2 1 5 6 8 10 11 13 14 14 14 15 16 16 16 16 16 17 17 16 17 17 17 16 16 16 16 16 16 16 17 17 18 18 19 19 19 19 19 19 19 19 19
18 17 18 19 18 18 18 18 18 19 18 16 15 14 13 12 11 11 11 12 12 9 8 8 8 7 8 8 9 9 9 9 8 7 8 9 10 8 7 6 5 3 3 2 4 6 8 9 10 13 14 14 16 18 18 18 17 16 16 16 15 15 16 16 16 16 16 17 17 17 16 16 17 18 18 18 18 19 19 19 20 20 20 19 20
20 20 19 19 19 19 18 19 19 19 18 17 15 14 13 12 11 11 11 12 11 9 7 8 8 7 7 7 7 8 8 8 7 7 8 10 11 10 10 8 6 5 4 2 2 4 6 8 10 12 13 14 17 19 20 19 18 17 15 15 15 15 15 15 15 16 16 18 18 18 18 17 18 19 19 18 19 19 20 21 20 21 20 20 20
20 20 20 20 21 20 19 19 19 18 18 17 15 14 12 11 11 11 10 10 9 8 7 7 8 7 7 6 6 7 7 7 8 9 9 9 10 11 11 10 8 8 6 2 2 3 4 7 9 11 13 15 18 21 21 20 18 16 15 15 14 15 15 16 16 17 17 18 19 19 19 19 20 20 19 18 20 20 20 20 20 20 21 21 21
21 20 20 21 21 21 20 20 19 18 17 17 15 13 12 11 10 10 10 9 9 9 8 7 7 7 7 7 7 7 6 6 9 10 10 10 11 11 11 11 10 9 7 3 3 3 3 6 8 10 13 15 18 22 22 20 17 16 15 15 15 15 16 16 17 18 19 18 19 19 19 20 21 21 20 20 21 21 21 22 21 21 23 22 20
21 21 20 20 20 21 22 21 20 18 16 16 15 13 12 11 10 9 9 9 9 8 7 6 7 7 8 8 7 7 7 7 9 9 8 9 11 11 12 12 11 9 8 6 5 4 3 4 7 10 12 15 18 22 23 20 16 14 14 15 15 16 16 16 17 18 18 18 18 18 19 20 21 21 21 22 22 22 22 23 23 22 22 22 20
22 22 21 20 20 21 22 22 22 19 16 15 15 13 12 11 9 8 8 8 9 8 7 7 7 7 7 8 7 7 8 8 8 8 7 8 10 11 13 13 12 9 9 7 6 5 4 4 6 8 11 13 17 21 23 20 15 13 13 14 15 16 16 16 16 17 17 18 18 18 19 20 21 22 23 23 23 23 23 23 23 23 22 21 20
24 24 23 22 21 21 21 22 23 20 17 15 15 13 12 10 8 7 7 7 8 7 8 8 8 7 7 7 7 6 6 6 7 7 7 8 10 11 13 14 12 9 9 8 7 7 5 4 5 7 9 12 16 20 21 18 14 12 12 13 14 15 16 16 16 17 17 17 18 18 19 21 22 23 25 25 23 23 24 24 24 23 22 22 20
25 25 24 22 21 20 20 21 22 21 18 17 16 14 12 11 8 7 7 7 6 6 8 9 9 8 7 7 7 6 5 4 5 6 6 7 8 10 12 13 13 11 10 9 9 9 7 5 4 5 8 10 14 18 20 17 13 12 12 12 13 14 16 17 17 17 18 18 18 19 20 22 24 26 27 26 25 24 24 24 25 24 23 23 22
25 24 23 22 21 20 20 19 19 19 18 18 18 14 12 11 9 8 7 7 7 7 9 10 10 9 8 6 6 6 5 4 5 6 6 6 8 9 11 12 11 11 10 10 10 9 8 6 4 4 6 9 12 16 18 15 12 11 12 13 13 14 15 17 17 18 19 19 20 21 23 25 27 28 29 29 27 25 24 25 25 25 24 23 22
25 24 23 22 22 21 19 17 18 19 18 19 19 15 12 11 10 8 7 7 8 8 9 11 11 10 9 8 7 6 5 4 4 5 6 7 9 10 10 9 10 9 7 6 7 6 6 5 4 4 5 7 10 14 15 13 10 10 12 14 15 15 16 17 17 19 20 21 22 23 25 27 29 29 30 31 29 26 25 25 24 24 24 22 22
25 25 24 23 22 21 20 17 19 22 20 20 20 15 12 12 9 8 7 8 8 8 9 11 12 11 10 9 8 6 5 4 4 5 6 8 9 10 9 8 10 10 7 5 4 3 4 4 4 4 4 5 7 11 12 11 9 10 12 15 17 18 17 17 18 19 21 23 24 25 27 28 29 29 30 30 30 26 24 25 23 22 24 23 20
26 25 25 24 22 21 20 19 21 23 21 19 19 14 12 12 10 8 8 9 10 9 9 11 11 11 11 10 8 6 5 5 5 6 7 8 9 9 8 8 9 10 9 8 6 4 4 4 4 4 4 4 5 9 10 9 9 11 13 15 18 19 19 19 20 21 22 23 25 26 27 27 28 29 29 29 29 26 22 25 24 20 24 25 19
28 28 27 26 24 23 22 21 22 23 21 20 18 14 14 14 11 10 10 10 11 10 9 11 11 12 11 11 10 8 7 6 6 6 7 7 8 8 8 8 8 9 10 10 9 7 6 4 4 5 4 3 4 7 8 8 9 12 13 15 17 18 19 21 21 22 22 23 24 26 27 28 28 29 28 27 29 26 22 24 24 21 23 25 19
31 31 30 30 29 26 26 26 24 22 21 20 18 14 15 16 13 11 11 11 11 11 9 12 13 13 12 11 10 9 8 7 7 7 7 6 7 7 8 8 9 9 10 10 11 11 9 7 5 6 4 3 3 5 6 6 8 11 12 13 15 16 17 19 21 22 22 23 24 26 28 28 28 28 28 26 27 26 23 23 24 22 21 24 22
32 32 32 32 32 30 28 26 25 25 23 19 18 16 16 17 15 12 11 11 11 11 9 12 14 14 13 11 10 9 8 8 8 7 7 6 6 6 7 8 9 9 10 10 11 11 10 9 7 7 5 2 1 2 4 5 7 9 11 11 13 14 15 17 19 21 21 22 24 25 28 29 29 28 28 26 25 24 24 24 23 22 21 23 24
31 32 33 33 33 31 29 27 25 25 25 21 20 20 19 18 17 14 10 10 11 11 10 10 14 15 14 12 10 9 9 9 9 8 8 7 6 6 7 7 8 9 10 11 11 10 10 9 6 6 5 1 1 1 2 3 5 7 9 10 11 12 14 15 17 19 20 21 22 25 27 29 29 29 28 27 25 22 22 24 23 21 21 22 25
31 31 33 33 32 31 30 28 26 25 24 23 23 23 21 22 20 16 11 8 10 12 11 9 12 14 15 14 12 10 10 11 11 10 9 8 7 7 6 6 7 8 10 11 11 10 9 6 4 4 4 3 2 2 1 1 3 5 6 9 10 10 12 13 15 17 18 19 21 23 26 29 30 30 28 27 27 23 21 21 22 21 19 20 24
30 30 32 33 32 31 29 27 26 25 24 22 23 24 22 21 21 18 14 8 9 12 12 11 10 12 13 14 13 12 11 11 12 12 11 10 9 8 7 7 7 7 7 7 7 7 6 2 0 2 4 4 3 2 2 2 1 2 4 6 8 9 10 11 12 15 16 17 19 21 24 28 29 30 29 27 27 26 23 20 22 23 20 19 22
30 29 30 32 32 30 28 28 27 25 24 21 20 22 21 18 17 15 13 9 9 12 12 12 11 10 11 13 13 12 11 11 10 10 10 10 10 10 9 8 7 6 4 4 4 4 4 3 3 2 2 4 4 3 3 3 3 2 3 5 6 7 9 9 10 13 14 14 17 19 21 25 28 30 29 27 25 26 24 22 24 25 21 19 20
29 27 28 31 31 30 28 28 29 26 24 22 18 19 19 15 16 15 13 11 11 12 11 12 11 9 9 10 12 11 11 11 10 9 10 10 11 11 11 9 8 7 5 4 5 6 6 5 4 3 2 3 4 5 4 5 5 4 3 4 5 6 7 8 9 11 12 12 15 18 19 22 26 27 28 27 24 24 22 22 26 26 22 20 20
27 24 26 30 30 29 28 28 29 27 25 23 18 16 15 12 15 16 15 13 13 12 11 11 11 10 9 10 12 13 12 12 11 10 10 12 13 13 13 11 10 9 7 6 6 7 8 7 5 4 3 4 5 6 5 5 5 3 3 4 5 5 6 8 8 10 10 10 13 16 16 19 22 24 27 27 24 23 21 22 26 26 22 21 21
24 21 24 28 28 28 29 29 29 28 26 23 20 15 13 10 12 16 15 13 13 12 11 10 10 10 10 11 12 13 13 12 11 11 11 13 14 14 14 14 13 11 10 8 7 7 8 9 8 6 5 5 5 5 4 3 2 1 2 4 5 5 6 7 7 9 9 8 10 14 15 17 20 22 26 27 25 23 21 24 27 26 23 22 22
23 21 23 27 27 28 30 30 29 29 28 25 22 17 11 11 16 18 17 14 13 13 12 9 10 10 9 11 12 11 11 11 11 11 12 12 13 14 13 14 14 14 12 10 9 8 9 10 9 8 7 6 5 4 2 1 1 2 2 4 6 6 6 6 6 7 8 8 8 11 14 16 19 21 23 27 27 23 22 25 28 26 23 22 23
24 22 23 26 27 28 29 30 29 29 29 27 24 20 10 9 19 20 16 14 14 13 12 10 9 9 9 10 10 9 9 10 11 11 12 12 12 13 13 13 13 15 13 11 11 10 10 10 10 9 8 6 5 4 3 1 1 2 2 4 5 6 5 5 5 6 8 7 7 9 12 15 17 19 22 26 27 24 23 26 27 25 23 24 25
26 24 23 25 27 27 28 30 31 28 27 28 25 19 11 4 18 20 17 14 16 13 11 10 8 8 8 9 9 9 8 10 11 11 11 11 11 12 14 13 13 14 14 13 12 11 10 10 10 10 8 6 5 5 4 1 0 1 2 3 4 5 4 3 4 6 7 7 6 8 11 13 16 18 20 24 27 25 24 25 26 25 24 25 27
27 25 24 24 25 26 26 28 30 29 27 28 25 17 12 6 13 19 19 18 17 16 12 11 9 8 8 9 9 8 8 8 9 10 10 10 10 12 14 14 13 14 14 14 14 13 11 11 10 9 7 6 5 4 3 1 0 1 2 3 4 4 2 1 3 5 6 5 4 7 10 11 14 17 18 22 25 25 23 23 24 25 24 26 28
25 25 24 24 24 24 25 26 28 28 27 27 26 17 13 13 9 16 20 23 16 18 13 10 10 9 8 8 8 7 6 6 6 7 8 9 9 11 14 14 13 13 14 14 15 15 14 12 12 10 8 6 4 2 2 2 1 2 2 3 3 2 0 0 2 5 5 4 4 7 9 10 13 15 17 20 24 24 23 22 23 24 24 25 27
23 23 23 23 22 22 24 24 25 26 27 28 26 20 15 16 16 14 20 25 18 15 14 9 9 9 9 8 7 6 6 6 5 5 7 9 9 10 14 15 15 13 14 14 14 15 14 13 12 10 8 8 5 3 3 4 2 1 1 3 4 3 1 1 2 4 4 3 4 6 8 10 12 14 16 18 21 23 22 21 22 22 22 23 26
21 21 21 22 21 20 22 24 24 24 26 27 27 24 20 17 20 21 19 20 19 14 14 11 9 9 9 9 8 7 7 6 5 4 5 7 9 10 12 16 17 16 15 14 15 14 14 14 13 11 10 9 8 7 6 6 5 4 3 4 4 4 2 1 1 3 4 3 4 6 7 9 11 13 15 16 19 21 20 19 21 21 20 22 24
22 20 20 21 20 20 21 22 24 24 24 26 27 26 24 20 19 21 18 14 16 15 15 14 10 10 10 10 9 8 8 7 6 5 5 6 7 9 11 14 17 18 18 16 16 16 15 15 14 12 11 10 10 10 9 8 6 5 4 4 4 4 3 1 0 1 3 3 4 6 7 9 11 12 13 15 16 19 20 19 19 20 19 19 22
24 21 20 20 19 19 19 20 22 23 23 25 27 27 26 22 18 17 16 14 14 13 13 15 13 12 11 11 11 9 8 8 7 7 6 5 6 8 9 12 14 17 19 19 19 18 17 16 15 13 11 10 10 10 10 8 7 5 4 4 4 4 3 1 1 0 2 3 4 6 7 8 10 11 13 14 15 17 19 19 18 17 16 17 19
23 21 19 19 19 18 19 18 20 22 23 23 26 27 26 23 18 15 14 15 16 14 12 14 14 14 13 12 12 10 9 8 8 8 6 4 5 7 8 9 11 13 15 17 18 18 17 16 14 12 11 10 10 10 10 8 7 6 6 6 6 5 2 0 2 1 2 4 4 6 7 8 9 10 12 13 13 15 18 18 17 15 14 15 17
Wind_Direction
346 344 342 341 344 346 345 341 337 336 335 339 336 333 334 330 319 315 328 327 319 331 340 334 328 329 331 332 332 331 336 339 335 328 324 313 303 310 325 323 312 304 296 297 303 310 318 315 315 316 307 309 313 309 302 296 296 298 302 310 312 313 323 329 327 323 325 326 327 328 325 324 325 324 320 316 308 305 315 315 311 310 307 309 307
5 354 346 342 344 345 346 345 342 335 331 335 332 320 321 327 323 311 314 323 328 342 345 330 319 324 330 336 345 345 343 347 353 353 344 333 322 321 329 320 310 302 295 302 311 317 331 326 319 319 314 320 327 316 306 306 309 309 315 328 330 328 335 342 331 334 342 337 336 335 330 332 336 338 337 332 319 309 312 316 313 312 313 316 314
4 353 346 344 347 349 350 349 347 344 343 347 346 327 307 306 312 307 306 319 322 322 331 328 320 316 317 328 347 354 353 354 4 4 357 351 336 332 334 322 315 314 308 312 318 326 341 339 330 330 327 328 329 323 325 330 328 331 348 7 27 63 62 347 336 341 346 343 341 340 336 336 337 340 339 336 329 322 319 316 315 315 313 311 311
354 348 346 345 346 349 353 354 353 353 353 353 353 345 321 300 297 297 303 317 311 305 314 325 324 307 302 321 342 352 358 358 0 3 8 14 353 343 345 331 323 322 323 323 325 337 354 4 2 356 356 355 350 353 358 355 352 10 31 24 48 91 55 341 339 337 337 340 345 349 348 344 337 330 329 326 319 318 320 316 309 306 306 307 310
347 343 340 339 339 344 352 356 356 355 352 349 346 341 336 321 305 299 300 304 304 299 301 319 329 302 289 319 341 354 5 5 1 6 14 21 4 347 337 327 327 334 345 342 347 2 8 15 20 18 26 32 24 27 34 358 9 38 36 357 354 355 338 340 339 333 333 340 345 346 343 340 338 330 321 313 306 306 306 303 299 300 303 305 308
338 334 333 333 334 340 348 353 355 356 350 345 342 337 337 337 327 316 308 305 307 300 289 305 324 301 286 318 346 3 16 12 5 7 8 6 353 340 345 358 358 1 6 351 359 23 22 18 21 23 33 38 29 37 55 29 24 48 18 337 338 333 330 332 331 331 334 337 336 335 334 332 332 328 320 310 304 302 301 300 299 300 302 303 304
334 332 332 331 332 338 344 347 352 355 351 349 348 342 341 344 342 337 323 313 316 311 292 293 308 301 292 320 6 2 6 2 359 3 6 23 59 64 38 37 15 4 8 351 353 23 21 11 10 16 28 32 31 41 54 47 40 54 26 328 322 328 325 323 328 332 331 329 330 331 332 330 327 323 316 307 303 300 298 297 298 299 300 300 301
337 338 339 336 336 341 344 344 347 348 347 349 348 345 347 351 351 350 335 317 316 316 304 291 289 288 281 300 18 340 345 349 354 6 25 57 75 58 49 63 35 8 10 359 348 358 357 357 1 6 19 25 31 43 49 46 38 30 360 318 308 313 317 322 330 331 328 329 330 332 332 331 328 323 316 309 304 300 297 295 296 297 297 296 297
352 353 358 356 348 347 348 343 343 344 344 346 347 348 349 351 354 358 344 323 316 309 303 289 273 264 244 214 304 325 334 343 353 11 34 77 73 25 35 57 34 20 11 358 349 350 350 358 2 357 4 13 22 30 26 24 22 11 350 334 324 315 313 322 329 329 330 332 334 334 334 333 328 322 319 315 309 304 301 299 299 299 300 300 299
9 6 9 9 360 350 349 344 342 343 345 347 350 353 353 351 352 357 352 336 328 319 301 282 270 253 226 221 279 312 327 342 357 2 357 145 228 347 352 300 16 21 11 7 2 1 0 2 1 353 358 3 353 346 339 338 346 348 344 341 336 324 319 325 329 330 332 334 335 334 332 333 330 326 325 324 320 314 308 305 304 304 305 303 302
13 7 7 8 5 353 345 343 342 344 348 349 350 355 355 351 346 341 342 337 335 335 315 281 272 253 236 253 291 311 336 353 6 342 299 251 242 230 231 297 34 45 31 24 14 9 10 8 359 354 355 350 337 325 320 315 312 316 318 317 318 317 319 324 327 329 332 333 335 336 334 334 334 333 332 333 333 328 320 316 314 312 310 306 303
14 9 5 4 4 358 348 345 342 345 350 351 353 356 355 350 344 339 331 326 327 328 318 282 267 260 256 273 289 304 345 3 1 348 282 212 188 169 14 10 50 49 35 28 22 16 17 16 7 2 355 344 337 330 322 318 315 316 315 311 308 309 315 322 325 328 332 333 336 338 337 337 339 339 338 339 338 335 333 331 328 326 325 322 318
10 10 7 4 3 358 352 348 346 347 350 351 353 357 358 350 343 342 329 312 314 306 301 273 252 262 270 273 268 278 334 325 344 355 161 137 100 96 18 53 61 38 29 28 23 17 13 8 0 354 345 339 338 334 328 327 328 330 334 331 324 320 322 327 329 330 331 332 337 340 339 342 346 345 343 345 342 339 340 338 336 335 334 333 332
4 5 5 4 3 359 352 346 344 344 345 345 346 351 357 356 345 341 332 312 303 290 283 273 259 270 281 271 247 268 338 322 60 95 145 129 76 87 97 71 46 29 29 27 17 14 15 9 359 351 345 342 339 335 332 335 338 342 347 348 345 338 335 335 331 329 331 334 338 342 341 343 348 349 349 350 348 345 345 342 340 339 337 337 338
358 358 360 360 1 360 355 349 341 337 338 337 336 341 350 356 352 341 333 322 304 291 286 285 286 286 278 257 237 207 109 163 131 119 134 117 51 68 79 54 40 36 31 22 12 17 20 14 9 3 359 353 346 343 341 344 346 346 347 347 346 342 341 343 337 333 335 337 341 345 345 346 349 353 355 354 353 350 347 346 344 342 341 341 341
348 350 352 354 355 357 356 352 345 337 334 332 331 334 338 347 352 346 329 318 304 294 287 287 294 291 271 258 249 204 189 221 179 132 132 68 8 81 57 51 66 46 22 11 13 20 12 5 6 4 3 3 358 354 351 353 351 348 347 347 346 345 345 347 344 342 344 344 347 350 351 353 355 356 356 356 356 351 347 347 346 345 345 344 343
338 339 343 346 348 352 353 352 349 341 335 331 328 329 329 335 344 348 336 315 305 295 288 285 287 286 274 267 263 239 225 230 189 144 153 144 207 174 81 66 97 54 15 349 7 18 9 3 7 9 10 11 8 3 359 358 355 351 350 349 348 348 347 349 350 352 355 355 356 359 1 2 2 1 358 357 355 350 348 349 348 348 348 347 346
333 334 335 338 340 343 347 349 348 344 339 334 328 324 324 325 332 342 344 330 314 301 294 287 283 286 282 274 269 262 250 232 197 161 157 162 207 207 212 200 134 94 46 311 7 19 12 8 13 14 14 15 13 9 6 3 358 354 352 349 348 349 349 352 357 1 4 5 6 8 9 6 6 6 2 358 357 354 353 353 353 353 352 353 353
325 328 329 330 333 336 338 342 344 343 340 336 330 322 319 320 323 330 336 334 326 310 298 290 283 281 281 279 278 273 264 248 219 186 169 158 178 205 213 195 166 149 160 64 25 19 12 11 14 14 15 19 18 14 10 6 1 356 352 349 350 353 353 355 1 8 11 12 12 11 11 8 8 8 4 2 2 2 0 358 358 357 356 358 357
314 317 319 321 325 328 330 333 336 338 338 335 331 324 317 313 313 319 322 325 329 319 296 287 284 279 279 283 284 281 274 261 243 223 202 169 160 187 203 190 181 183 167 101 22 7 9 9 9 12 17 19 17 14 10 6 3 360 356 353 356 359 359 2 9 15 16 15 15 14 13 12 10 10 8 7 6 6 5 3 3 1 359 359 357
307 309 310 312 316 318 320 323 327 330 333 332 330 323 316 309 306 308 310 314 324 326 302 279 276 276 278 281 284 286 280 262 243 235 225 189 175 198 208 197 201 211 178 123 5 355 7 5 4 10 13 14 13 11 9 8 6 3 2 2 5 7 8 13 19 22 21 19 19 17 17 16 14 12 11 10 10 10 8 7 6 3 360 359 359
300 302 304 305 307 309 310 311 315 320 325 327 325 320 315 309 302 299 301 305 311 318 306 277 270 271 270 273 280 281 274 261 241 231 232 214 203 215 218 214 219 210 183 159 325 336 0 356 357 4 9 11 11 12 10 9 8 9 11 12 15 18 19 21 23 24 23 21 21 19 18 18 14 12 13 14 14 12 10 7 7 7 3 3 2
295 295 297 298 301 302 301 299 301 308 316 319 319 316 313 309 300 291 290 293 294 300 298 275 266 265 260 261 272 275 267 261 255 245 243 237 224 215 213 219 224 216 200 218 278 295 337 345 350 359 7 10 11 13 11 10 12 16 19 19 23 27 27 27 26 26 25 22 21 19 18 17 14 15 17 15 12 11 11 8 9 11 6 3 2
291 290 291 294 297 297 295 292 291 295 303 310 312 309 307 307 301 289 283 283 285 289 283 264 261 262 257 254 265 280 278 266 264 260 255 253 242 221 211 214 218 219 217 225 245 255 289 327 344 356 5 10 11 12 11 10 14 21 25 26 28 31 31 31 29 27 25 22 21 18 18 17 16 17 16 13 12 13 13 10 10 13 8 3 3
289 286 287 291 293 293 293 290 286 285 291 301 305 300 296 298 298 291 283 282 282 276 265 256 254 256 257 254 255 267 272 268 269 269 258 251 245 230 218 215 217 223 223 225 236 236 253 303 336 356 4 9 12 11 9 9 14 24 30 31 32 33 33 32 30 28 25 22 21 19 20 20 18 19 16 15 16 15 15 13 11 13 11 6 6
293 290 289 290 289 289 290 287 283 282 284 292 296 292 286 285 288 284 279 284 285 267 255 251 248 247 248 249 252 258 266 268 272 276 267 254 245 236 226 214 211 222 226 226 234 234 244 282 321 353 3 8 11 8 5 7 14 26 32 33 36 37 35 33 31 29 26 23 23 22 23 23 22 21 18 17 17 16 16 15 13 14 14 11 12
301 297 294 292 289 285 283 282 282 282 281 283 285 284 279 274 273 275 274 285 293 271 252 247 245 246 242 240 248 255 268 275 271 272 274 266 251 244 241 223 206 208 220 228 232 234 244 267 301 346 1 7 9 4 1 5 15 27 32 33 37 39 37 34 32 31 29 26 26 26 26 26 25 24 21 18 16 15 17 16 16 18 19 18 18
308 304 298 292 288 284 279 278 280 280 276 275 276 276 276 271 264 269 277 286 293 278 258 250 248 248 241 237 245 250 262 282 285 277 272 266 250 244 250 241 222 212 215 226 234 240 250 259 280 327 353 3 6 360 357 3 15 26 34 36 37 40 39 35 33 33 32 31 30 30 29 28 27 25 22 18 14 14 18 20 19 21 24 23 20
318 312 305 295 289 284 278 275 276 273 268 268 269 267 269 270 263 266 280 294 293 277 259 253 250 249 242 234 238 248 259 274 284 277 266 256 247 245 246 242 240 235 226 235 247 256 265 262 269 305 336 356 2 358 356 3 16 27 38 40 40 42 41 36 34 34 33 33 33 32 31 29 27 26 24 19 14 15 21 23 23 24 24 22 18
326 320 312 303 295 286 277 273 271 267 261 263 266 263 262 266 263 266 282 301 303 281 256 250 248 248 244 235 233 241 256 273 278 268 261 252 247 249 243 231 238 245 252 277 295 298 293 279 264 280 314 341 358 360 1 9 23 37 46 48 45 45 42 37 35 34 33 35 34 32 31 29 26 25 25 21 16 18 23 23 24 25 23 21 20
336 329 321 311 302 290 280 272 267 265 260 259 261 259 259 261 257 264 282 297 308 294 254 243 244 243 243 238 234 234 244 265 271 261 257 255 249 248 239 224 229 241 250 269 289 304 309 297 261 256 289 322 358 5 11 24 38 46 51 50 47 44 40 37 35 34 33 34 34 33 32 30 27 25 25 24 21 22 26 24 25 23 19 22 27
345 339 333 324 314 302 290 282 274 270 263 257 256 252 254 257 253 261 275 287 304 303 260 240 240 242 243 242 238 236 240 254 264 257 255 258 251 242 233 222 225 237 247 258 272 281 293 295 250 234 262 303 355 7 19 37 45 48 49 47 44 41 38 36 35 33 32 32 32 33 32 30 29 28 27 26 25 28 31 26 25 24 19 22 25
347 345 342 337 331 322 311 302 291 282 272 258 249 246 251 253 247 253 267 275 296 305 272 242 239 241 246 248 244 239 237 246 258 256 252 260 257 241 230 222 221 231 243 255 265 271 281 284 252 233 251 287 344 7 25 41 43 44 45 43 40 37 35 35 34 32 30 30 31 31 31 30 30 30 28 28 29 32 34 28 26 26 21 19 16
349 349 348 346 343 339 331 320 305 299 297 277 252 242 248 251 246 246 260 269 286 306 285 248 241 244 248 251 246 237 234 241 255 257 249 254 260 248 233 225 225 230 238 251 261 268 277 276 262 255 261 265 348 2 23 42 44 42 40 37 35 33 33 33 32 30 28 29 30 31 31 29 30 31 29 29 30 33 33 30 29 27 20 15 14
349 351 353 353 352 349 342 334 321 312 311 299 270 248 239 241 244 246 258 269 280 304 306 262 245 245 248 248 241 234 234 238 247 252 245 242 253 254 238 224 226 233 239 249 257 264 272 275 275 272 261 205 120 334 7 37 43 39 35 32 29 28 30 31 30 28 27 28 28 30 31 28 28 30 29 29 29 30 32 29 27 24 17 13 14
349 349 352 354 357 356 350 344 337 325 315 304 284 266 248 236 235 238 245 263 278 296 312 292 258 248 246 244 241 238 239 241 244 245 240 236 242 250 239 223 225 237 240 244 248 254 265 280 290 268 232 177 174 280 311 10 36 35 30 26 22 22 25 27 29 27 26 28 28 29 30 28 26 27 28 29 29 28 29 26 22 21 18 11 12
349 348 349 352 355 359 357 352 346 338 328 313 295 288 274 246 235 237 237 244 273 284 302 308 281 258 248 244 244 247 248 247 247 242 236 234 235 240 239 229 231 246 247 239 237 241 248 259 243 237 212 193 211 255 272 264 324 12 14 17 15 18 20 21 27 28 26 30 30 27 27 26 24 25 26 29 31 30 29 27 23 21 17 11 12
348 348 349 350 352 357 359 356 351 346 341 327 303 297 288 254 240 250 239 224 253 272 293 311 297 270 253 245 243 245 246 248 248 241 232 227 226 230 236 233 230 239 244 228 213 201 179 153 143 146 179 197 211 231 246 246 254 293 336 360 7 13 15 14 23 27 25 30 33 27 25 24 23 21 22 28 32 32 29 26 23 20 17 14 16
346 349 351 351 350 353 357 358 355 351 346 337 316 297 285 251 234 248 241 222 238 261 283 306 304 282 260 245 239 237 240 245 248 240 224 214 214 221 229 231 224 219 215 210 204 186 170 169 170 158 161 191 209 224 240 248 252 270 312 349 360 2 2 5 16 23 22 23 28 27 24 22 21 18 19 26 31 32 30 24 20 20 20 20 20
345 351 354 352 350 350 354 357 356 355 351 344 332 304 283 251 228 238 239 226 231 251 272 296 305 290 264 249 242 240 244 251 253 245 228 214 211 216 222 226 221 214 210 205 203 194 186 192 199 197 203 216 224 232 247 260 264 281 324 349 357 350 346 356 8 17 17 12 16 21 21 20 20 17 18 24 29 32 31 24 21 22 22 23 24
347 353 354 352 351 351 353 355 356 357 355 351 344 321 286 248 228 240 244 233 232 244 259 284 304 295 267 251 247 246 250 256 254 247 236 223 218 217 220 222 220 217 214 207 202 200 200 207 212 215 225 235 237 240 252 279 293 301 321 339 349 340 337 352 5 12 13 6 8 15 17 17 18 16 17 22 27 32 30 23 23 26 25 26 28
350 356 355 352 354 355 355 356 356 357 357 356 352 335 296 223 216 239 245 233 232 242 250 274 301 296 272 251 246 247 250 253 251 247 241 232 225 219 216 220 219 217 217 214 209 208 212 217 220 225 236 243 243 245 246 258 275 277 307 329 334 329 333 353 5 7 7 5 6 13 15 16 16 14 15 20 25 29 28 23 24 28 30 32 32
353 356 356 354 355 357 359 360 359 358 358 359 357 349 334 216 218 246 256 233 227 237 247 269 300 297 275 256 246 245 250 252 249 247 243 236 229 217 209 214 216 213 216 221 219 216 219 223 225 230 242 248 243 239 233 228 256 289 318 318 320 326 331 350 2 0 1 1 3 13 16 15 16 14 14 18 23 28 28 25 26 32 36 37 36
356 357 356 355 356 356 359 4 4 1 359 360 359 356 355 239 230 259 283 260 234 230 241 263 293 298 274 257 248 245 253 259 254 250 246 237 228 215 207 210 212 211 214 220 223 226 230 229 230 235 242 245 239 233 227 218 298 345 332 319 326 335 335 350 356 347 352 358 2 12 14 12 14 14 14 17 21 26 29 27 28 36 41 41 41
357 358 357 357 358 356 360 7 8 5 4 2 2 1 360 333 250 259 292 292 251 225 233 261 280 295 280 257 249 249 255 266 261 250 244 235 224 213 207 208 211 212 216 219 220 227 235 236 236 240 244 242 240 230 208 190 356 356 345 341 344 341 337 2 341 336 349 358 1 10 11 10 13 13 13 17 20 23 29 30 32 38 42 43 44
357 1 3 3 0 357 2 10 12 10 7 4 5 9 7 359 311 270 298 315 276 221 220 256 269 285 291 266 255 258 257 267 271 251 236 230 224 213 206 205 207 211 216 217 218 223 229 232 235 239 243 244 246 233 199 219 302 9 12 353 353 352 304 231 334 349 7 10 3 12 10 8 13 14 13 16 18 21 27 32 34 39 40 39 42
356 0 5 6 3 359 2 10 13 12 10 5 5 7 5 3 356 320 309 316 297 233 213 238 261 274 290 277 263 263 257 263 279 261 235 229 223 215 206 203 202 206 212 215 217 220 224 228 232 235 237 236 236 229 220 231 253 267 292 317 334 339 290 224 353 13 32 28 12 16 11 6 11 13 12 14 16 18 25 31 35 39 39 35 36
352 354 359 3 5 4 2 6 11 13 11 7 5 4 359 357 359 349 326 310 301 268 227 225 250 265 280 280 269 265 261 263 283 282 252 235 224 217 211 205 202 202 206 210 214 217 221 225 228 233 235 229 222 220 224 231 233 231 255 294 317 329 323 252 8 21 34 32 15 11 7 3 7 10 10 11 13 16 22 30 33 37 38 32 31
349 348 350 356 3 7 3 1 5 10 11 7 4 3 360 356 357 357 348 323 310 288 245 227 235 253 271 278 271 267 263 264 284 293 272 248 229 219 214 211 207 205 204 206 208 212 216 221 226 231 231 225 218 214 214 218 221 231 257 284 308 327 329 285 233 27 23 14 7 3 358 359 4 8 10 9 10 14 19 25 28 32 35 31 28
347 346 343 344 350 360 3 360 359 2 6 6 3 2 0 357 355 357 356 344 332 310 265 241 236 239 256 269 266 265 266 269 281 290 280 258 237 226 219 217 214 212 212 213 214 216 220 224 229 230 224 220 215 207 205 208 214 228 246 262 292 320 337 297 224 302 12 358 359 359 353 355 1 5 9 8 7 11 15 18 22 27 31 32 29
347 345 341 338 338 346 356 358 354 353 355 359 360 359 359 356 351 353 358 355 348 332 290 264 252 241 243 255 260 259 259 266 277 282 281 264 237 230 226 221 220 219 218 219 221 223 225 226 228 224 215 210 206 201 201 205 205 213 226 242 276 303 331 186 228 252 359 355 354 357 353 354 359 4 8 7 4 6 9 12 17 24 30 32 31